Content
SEND FEEDBACK

Daily
Averages
Monthly
Summary
Brazil

BELO HORIZONTE, MINAS GERAIS


Home > South America > Brazil > Minas Gerais
Elevation: 3008 feet     Latitude: 19 50S     Longitude: 043 56W

WEATHER
 
SELECT A DAY
Number of Records: 158,520;   Date Range: 6/30/96 - 7/23/14
 
SHARE

PRINT THIS DATA

[ ← Previous Day ]
WEATHER ALMANAC - JANUARY 31, 2013
[ Next Day → ]
[ °C ]   °F
Weather ElementAverageHighLow
Temperature66.6 °F69.8 °F (11:00 am)64.4 °F (5:00 am)
Dewpoint65.2 °F66.2 °F (1:00 am)62.6 °F (8:00 pm)
Humidity95.5 %100 % (1:00 am)88 % (11:00 am)
Barometer30.04 in30.09 in (11:00 am)29.98 in (5:00 pm)
Wind Speed0.9 mph4.6 mph (5:00 am)
Weather ElementAverage
Visibility4.9 mi
Wind DirectionE (91.3 °)

Weather ElementTotal
Precipitation---
Cooling Degree Days2.1 (Base 65)
Growing Degree Days17.1 (Base 50)
Averaged from 24 records on January 31, 2013
WEATHER CONDITIONS BREAKOUT
WIND DIRECTION BREAKOUT
WEATHER BY HOUR - JANUARY 31, 2013
[ °C ]   °F
Local TimeTemperatureDewpointHumidityBarometerVisibilityWind DirectionWind SpeedGust SpeedPrecipitationEventsConditions
1:00 AM66.2 °F66.2 °F100 %30.04 in6.2 miESE (120°)2.3 mphMostly Cloudy
2:00 AM66.2 °F64.4 °F94 %30.04 in6.2 miSW (230°)2.3 mphMostly Cloudy
3:00 AM66.2 °F64.4 °F94 %30.04 in6.2 miWest (270°)2.3 mphMostly Cloudy
4:00 AM66.2 °F64.4 °F94 %30.04 in6.2 miWSW (240°)3.5 mphMostly Cloudy
5:00 AM64.4 °F64.4 °F100 %30.01 in3.7 miSouth (180°)4.6 mphMostly Cloudy
6:00 AM66.2 °F64.4 °F94 %30.01 in6.2 miCalmMostly Cloudy
7:00 AM66.2 °F66.2 °F100 %30.01 in6.2 miCalmMostly Cloudy
8:00 AM66.2 °F66.2 °F100 %30.04 in6.2 miCalmMostly Cloudy
8:25 AM66.2 °F66.2 °F100 %30.04 in5.0 miWNW (290°)1.2 mphMostly Cloudy
9:00 AM66.2 °F66.2 °F100 %30.06 in1.6 miWest (280°)1.2 mphLight Drizzle
10:00 AM68.0 °F66.2 °F94 %30.06 in5.0 miCalmMostly Cloudy
11:00 AM69.8 °F66.2 °F88 %30.09 in6.2 miCalmMostly Cloudy
12:00 PM69.8 °F66.2 °F88 %30.09 in6.2 miCalmMostly Cloudy
1:00 PM69.8 °F66.2 °F88 %30.06 in1.9 miSouth (180°)1.2 mphRainLight Rain
2:00 PM66.2 °F66.2 °F100 %30.06 in1.9 miEast (90°)1.2 mphRainLight Rain
3:00 PM68.0 °F64.4 °F88 %30.04 in5.0 miEast (100°)1.2 mphRainLight Rain
4:00 PM66.2 °F66.2 °F100 %30.01 in3.1 miSSW (210°)1.2 mphMostly Cloudy
5:00 PM66.2 °F66.2 °F100 %29.98 in1.9 miCalmMostly Cloudy
6:00 PM66.2 °F66.2 °F100 %29.98 in1.9 miCalmMostly Cloudy
7:00 PM66.2 °F64.4 °F94 %30.01 in6.2 miCalmMostly Cloudy
8:00 PM66.2 °F62.6 °F88 %30.01 in6.2 miCalmMostly Cloudy
9:00 PM66.2 °F62.6 °F88 %30.04 in6.2 miCalmMostly Cloudy
10:00 PM64.4 °F64.4 °F100 %30.04 in6.2 miCalmMostly Cloudy
11:00 PM64.4 °F64.4 °F100 %30.06 in6.2 miCalmMostly Cloudy
Hourly data recorded from SBLS, located miles away from Belo Horizonte, Minas Gerais







STORIES FROM OUR PARTNERS